{"data":{"norad_id":64347,"intl_designator":"2025-126D","name":"STARLINK-34407","alt_names":[],"object_type":"PAYLOAD","status":"ACTIVE","operator":null,"country":"US","launch_date":"2025-06-13","launch_site_code":"AFWTR","launch_vehicle":null,"mission":null,"orbit_class":"UNKNOWN","rcs_meters":null,"size_class":null,"mass_kg":null,"dimensions":null,"purposes":["comms"],"wikipedia_slug":null,"has_3d_model":false,"image_url":null,"decayed_at":null,"tle_current":{"epoch":"2026-05-24T21:25:18.427296Z","epoch_age_seconds":80250,"freshness":"FRESH","line1":"1 64347U 25126D   26144.89257439  .00002595  00000+0  22514-3 0  9991","line2":"2 64347  70.0012 202.4270 0003853 272.2650  87.8067 14.98342382 52092","mean_motion":14.98342382,"eccentricity":0.0003853,"inclination_deg":70.0012,"raan_deg":202.427,"arg_perigee_deg":272.265,"mean_anomaly_deg":87.8067,"bstar":0.00022514,"rev_number":5209,"period_min":96.106204916788,"perigee_km":569.33970632677,"apogee_km":574.69549546222,"semimajor_km":6950.1546008945,"source":"CELESTRAK","updated_at":"2026-05-25T13:38:20.400618Z"}}}